Showing default

HAWK-3C, 48948

Orbit data source: Space-Track

HAWK-3C, 48948 is a payload satellite owned by HawkEye 360 (US) in SSO that was launched on Wed, 30 Jun 2021 UTC via an FALCON 9 launch vehicle from the Air Force Eastern Test Range (AFETR). Payload-class satellites include a variety of spacecraft equipped with specific instruments for various scientific and technological missions. These include communications satellites like Starlink; space stations such as the ISS; scientific satellites like the Hubble; Earth observation satellites from companies like Planet Labs, Umbra, and HawkEye 360; GPS; miniature CubeSats for education and research; and military/defense satellites.

Loading next visibility...
Identifier
48948, 2021-059BX
Orbit
SSO
Country
Flag of USUS
Related business
Manufacturer
UTIAS-SFL
Mission
Operational Commercial Sigint
Bus & Motor
DEFIANT, Unknown motor
Mass
31 kg wet, 30 kg dry
Launch date (UTC)
2021-06-30 (5 years ago)
Launch vehicle
FALCON 9
Launch site
Air Force Eastern Test Range (AFETR)
Object type
Payload
Rocket body
Debris
Shape & HBR
Box + 2 Pan, 1.0 m
Radar Cross Section
0.348 m², Medium (>0.1 m² and < 1m²)

Expand to show TLE details & history
Last TLE update: 16 hours ago

TLE from 16 hours ago
0 HAWK-3C
1 48948U 21059BX  26014.06826146  .00018962  00000-0  26192-3 0  9995
2 48948  97.6855 203.0099 0006308 167.9905 192.1501 15.57197582253775
Epoch: 2026-01-14T01:38Z
TLE epoch observation values (Epoch: 2026-01-14T01:38:17.790Z)
Latitude
Longitude
64.89422°
Altitude
403.083 km
Speed
7.666 km/s
True Right ascension
13h 32m 02s
True Declination
0° 00' 00"
Sunlit
Object was in daylight at epoch
Visualization orbit readout
Latitude
Unknown
Longitude
Unknown
Altitude
Unknown
Speed
Unknown
Apparent Right ascension
Unknown
Apparent Declination
Unknown
Sunlit
N/A
Visualization observer readout
Local Sidereal Time
18:05:48
Azimuth
Unknown
Elevation
Unknown
Doppler factor
Unknown
Orbital elements
Apogee altitude
396.972 km
Perigee altitude
388.43 km
Semi-major axis
6,770.838 km
Eccentricity
0.00063
Inclination
97.6855°
RAAN
203.0099°
Arg. of periapsis
167.9905°
True anomaly
192.1349°
Mean anomaly
192.1501°
Eccentric anomaly
192.1425°
Mean motion
3.89565 °/min
Orbital period
92.41 mins
BSTAR
0.00026192
Loading maneuver chart data...
Computing Atmospheric mass density...
Loading historical data...
Loading historical data...
Loading historical data...
Loading historical data...
Loading historical data...
Loading historical data...
Loading historical data...

Documentation

Showing up to 5 results
|